Find Starlink 5796

NORAD ID: 55916 Int'l Des: 2023-037 Owner: SPXS Country: US Constellation: starlink operational
LEOCIRCULAR

Live Position

Loading 3D Globe...

About Starlink 5796

Description loading...

Upcoming Passes

Passes for default location (London). Set your location on the main map for personalized predictions.

Altitude History

Loading altitude history...

Two-Line Element Set

1 55916U 23037C 26122.16169633 -.00001332 00000-0 -10380-3 0 9995
2 55916 70.0003 169.7598 0003859 266.9401 93.1316 14.98336941171499
Epoch: May 2, 2026 • Age: 10 hours

Current Status

Altitude 586.2 km
Velocity 7.57 km/s
Sub-Earth Point 70.06°N, 166.65°W
Launch Date Mar 17, 2023
Age 3.1 years
Type internet

Technical Details

Classification Payload
Mass 305.00 kg
Dry Mass 290.00 kg
Total Mass 305.00 kg
Length 0.20 m
Diameter 2.80 m
Span 9.00 m
Shape Box + pan
Manufacturer SPXS
Bus Type Starlink
Phase Status In Orbit
Owner/State SPXS/US

Most Searched